[[{"header":{"parameterUnit":"m.s-1","parameterCategory":1,"la1":30.2991,"la2":30.254,"lo1":-89.0895,"lo2":-89.0444,"dy":0.0017,"dx":0.0017,"nx":28,"ny":28,"refTime":"2025-08-06T03:00:00:Z","depth":0,"parameterNumber":2,"parameterNumberName":"U-component_of_WINDS"},"data":[0,0,0,0,0,0,0,0,0,0,0,0,0,0,0,0,0,0,0,0,0,0,0,0,0,0,0,0,0,0,0,0,0,0,0,0,0,0,0,0,0,0,0,0,0,0,0,0,0,0,0,0,0,0,0,0,0,0,1.3493,1.3494,0,1.3543,1.3543,1.3544,1.354,1.3539,1.3539,1.3538,1.3585,1.3587,1.3589,0,0,0,0,0,0,0,0,0,0,0,0,0,1.3393,1.3395,1.3493,1.3494,1.3495,1.3543,1.3543,1.3544,1.354,1.3539,1.3538,1.3538,1.3584,1.3587,1.3589,0,0,0,0,0,0,0,0,0,0,0,0,0,1.3439,1.3395,1.3493,1.3499,1.35,1.3542,1.3543,1.3544,1.354,1.3539,1.3538,1.3537,1.3584,1.3587,1.3589,1.3629,0,0,1.3598,1.36,0,0,0,0,0,0,0,0,1.3436,1.3442,1.3497,1.3498,1.3499,1.3534,1.3525,1.3573,1.3541,1.3525,1.3538,1.3537,1.3569,1.3573,1.3584,1.3631,1.3633,1.3599,1.36,1.3602,1.3602,0,0,0,0,0,0,0,1.3433,1.344,1.3513,1.3498,1.3499,1.3498,1.3503,1.3534,1.3552,1.3526,1.3526,1.3532,1.3569,1.3582,1.3586,1.3634,1.3598,1.3601,1.3603,1.3604,1.3716,1.3717,0,0,0,0,0,0,1.3429,1.3438,1.3511,1.3514,1.3465,1.35,1.3506,1.3524,1.3552,1.3555,1.3533,1.3532,1.3577,1.3582,1.3587,1.3635,1.3602,1.3604,1.3606,1.3715,1.3716,1.3717,0,0,0,0,0,0,1.3427,1.3436,1.3509,1.3476,1.3485,1.3503,1.3523,1.3526,1.3538,1.3557,1.356,1.3542,1.3577,1.3583,1.3619,1.3636,1.3606,1.3608,1.3713,1.3715,1.3717,1.373,0,0,0,0,0,0,1.3424,1.3435,1.3451,1.3476,1.3487,1.3541,1.3524,1.3527,1.3543,1.3542,1.3567,1.357,1.3576,1.3615,1.3622,1.364,1.361,1.3712,1.3714,1.3716,1.3728,1.3733,1.3736,0,0,0,0,0,1.3421,1.3452,1.3452,1.346,1.3507,1.3542,1.3548,1.3555,1.3545,1.356,1.3573,1.3569,1.3634,1.3618,1.3626,1.3645,1.371,1.3713,1.3716,1.3727,1.3732,1.3736,0,0,0,0,0,0,1.3426,1.3455,1.3455,1.3496,1.3517,1.3541,1.3561,1.3561,1.3584,1.3581,1.3589,1.3595,1.3631,1.3642,1.3624,1.3685,1.3671,1.3675,1.3676,1.3681,1.3685,1.368,1.3613,0,0,0,0,0,1.3433,1.3459,1.3483,1.3517,1.3527,1.3543,1.3558,1.3562,1.3583,1.3592,1.3607,1.3626,1.3651,1.3667,1.3691,1.3731,1.3736,1.3748,1.3752,1.3755,1.3758,1.3779,1.3785,1.3727,1.3726,1.3726,0,0,1.3445,1.3464,1.348,1.3518,1.3535,1.3561,1.355,1.3578,1.3597,1.3595,1.363,1.3642,1.3665,1.3703,1.372,1.3713,1.3776,1.3759,1.3761,1.3762,1.3783,1.3788,1.3793,1.3728,1.3728,1.3728,0,0,1.3481,1.3499,1.3529,1.3546,1.3572,1.3582,1.3589,1.3614,1.3622,1.3658,1.3657,1.368,1.3723,1.3739,1.3753,1.3797,1.3793,1.3804,1.3823,1.3843,1.3848,1.3852,1.3866,1.3871,1.3808,1.3808,1.3808,0,1.3493,1.3534,1.3544,1.3573,1.3589,1.3591,1.362,1.3636,1.3668,1.3679,1.3671,1.3725,1.3741,1.3782,1.3793,1.3804,1.3812,1.38,1.3847,1.3851,1.3855,1.3868,1.3874,1.3809,1.3809,1.3809,1.3808,0,1.3546,1.3575,1.3595,1.3627,1.3646,1.3675,1.3689,1.3707,1.371,1.3721,1.3757,1.3776,1.3803,1.3814,1.3817,1.3856,1.3851,1.3845,1.383,1.3861,1.3874,1.3879,1.381,1.381,1.381,1.3809,0,0,1.3584,1.3623,1.363,1.3645,1.3674,1.3696,1.3725,1.3753,1.3768,1.379,1.3813,1.3851,1.3846,1.3861,1.3867,1.3885,1.3917,1.3877,1.3878,1.3882,1.3959,1.3962,1.3968,1.3917,1.3918,1.3918,1.3957,0,1.3622,1.3674,1.3685,1.373,1.3756,1.3759,1.3784,1.3804,1.3816,1.3838,1.3851,1.3876,1.3869,1.3878,1.3897,1.3909,1.3932,1.3907,1.3937,1.3937,1.3928,1.3974,1.3977,1.4012,1.3962,1.3963,1.3963,0,1.3672,1.3697,1.3744,1.3771,1.3782,1.3804,1.3831,1.3854,1.3876,1.3883,1.3902,1.3905,1.3935,1.3921,1.3961,1.3943,1.3957,1.3965,1.3966,1.3967,1.395,1.3975,1.4024,1.4028,1.3972,1.3971,1.397,0,1.3693,1.3738,1.3773,1.3785,1.3817,1.3833,1.3846,1.3869,1.3885,1.3909,1.3919,1.3946,1.3959,1.3979,1.399,1.3979,1.4029,1.4015,1.4034,1.4033,1.4042,1.404,1.4091,1.4054,1.4054,1.4054,1.4054,0,1.3732,1.3761,1.3783,1.3803,1.3835,1.3848,1.3879,1.3892,1.3912,1.3935,1.394,1.3961,1.3975,1.3997,1.4006,1.4037,1.4044,1.4049,1.405,1.4047,1.4046,1.4054,1.4051,1.4055,1.4055,1.4055,1.4055,0,1.376,1.3776,1.3813,1.3841,1.3849,1.3871,1.3894,1.3914,1.3926,1.3955,1.3963,1.3981,1.4009,1.4022,1.4055,1.4061,1.4096,1.4097,1.4088,1.4088,1.4105,1.4102,1.416,1.4168,1.4128,1.4128,1.4128,0,1.3782,1.3805,1.3836,1.3852,1.3866,1.3892,1.3909,1.3923,1.394,1.3969,1.3985,1.4013,1.4036,1.4079,1.4095,1.4121,1.4121,1.414,1.4124,1.4121,1.4119,1.4116,1.4118,1.4141,1.4142,1.4142,1.4142,0,1.3821,1.3828,1.3853,1.3881,1.3902,1.3925,1.3947,1.3959,1.3976,1.3996,1.4024,1.4042,1.4077,1.4104,1.4131,1.4144,1.4146,1.4148,1.4153,1.4148,1.4142,1.4144,1.4093,1.4145,1.4145,1.4145,1.4145,1.4145,1.3845,1.3865,1.389,1.3918,1.3936,1.3957,1.3977,1.3993,1.4017,1.4047,1.4054,1.4084,1.4106,1.4143,1.4158,1.418,1.4176,1.4184,1.4186,1.4187,1.4187,1.414,1.4186,1.4186,1.4186,1.4185,1.4185,0,1.3882,1.3899,1.3925,1.3956,1.3978,1.398,1.4004,1.4022,1.4049,1.407,1.4093,1.4126,1.4152,1.4171,1.4198,1.4213,1.4214,1.4219,1.4217,1.422,1.419,1.4182,1.4218,1.4218,1.4218,1.4218,1.4218,1.4218,1.3904,1.3937,1.3947,1.399,1.4006,1.4036,1.405,1.4069,1.4086,1.4123,1.4145,1.4158,1.4178,1.4207,1.4231,1.4236,1.4245,1.425,1.4254,1.4225,1.4222,1.4218,1.4211,1.4252,1.4252,1.4282,1.4282,1.4282]},{"header":{"parameterUnit":"m.s-1","parameterCategory":1,"la1":30.2991,"la2":30.254,"lo1":-89.0895,"lo2":-89.0444,"dy":0.0017,"dx":0.0017,"nx":28,"ny":28,"refTime":"2025-08-06T03:00:00:Z","depth":0,"parameterNumber":3,"parameterNumberName":"V-component_of_WINDS"},"data":[0,0,0,0,0,0,0,0,0,0,0,0,0,0,0,0,0,0,0,0,0,0,0,0,0,0,0,0,0,0,0,0,0,0,0,0,0,0,0,0,0,0,0,0,0,0,0,0,0,0,0,0,0,0,0,0,0,0,1.5736,1.5735,0,1.5709,1.5708,1.5708,1.5677,1.5676,1.5676,1.5675,1.5646,1.5646,1.5646,0,0,0,0,0,0,0,0,0,0,0,0,0,1.5759,1.5759,1.5736,1.5735,1.5735,1.5709,1.5708,1.5708,1.5677,1.5676,1.5676,1.5675,1.5646,1.5646,1.5646,0,0,0,0,0,0,0,0,0,0,0,0,0,1.5742,1.5759,1.5736,1.5716,1.5714,1.5709,1.5708,1.5708,1.5677,1.5676,1.5676,1.5675,1.5647,1.5646,1.5646,1.5656,0,0,1.5644,1.5644,0,0,0,0,0,0,0,0,1.5743,1.5741,1.572,1.5718,1.5716,1.5696,1.5706,1.5691,1.5677,1.5691,1.5675,1.5675,1.5663,1.5661,1.5658,1.5655,1.5654,1.5644,1.5644,1.5643,1.5643,0,0,0,0,0,0,0,1.5744,1.5742,1.5725,1.5719,1.5717,1.5709,1.5705,1.5703,1.5681,1.569,1.5688,1.5685,1.5662,1.5658,1.5657,1.5653,1.5644,1.5644,1.5643,1.5643,1.5657,1.5658,0,0,0,0,0,0,1.5749,1.5743,1.5726,1.5724,1.5728,1.5709,1.5705,1.5703,1.5681,1.5677,1.5686,1.5684,1.5659,1.5657,1.5656,1.5666,1.5643,1.5643,1.5643,1.5657,1.5657,1.5658,0,0,0,0,0,0,1.5749,1.5747,1.5727,1.5733,1.573,1.5709,1.5706,1.5702,1.5699,1.5678,1.5674,1.5686,1.5659,1.5656,1.5656,1.5664,1.5643,1.5642,1.5656,1.5657,1.5658,1.5687,0,0,0,0,0,0,1.575,1.5748,1.5752,1.5734,1.573,1.5729,1.5707,1.5702,1.5698,1.5695,1.5677,1.5674,1.5658,1.5657,1.5656,1.5663,1.5642,1.5655,1.5656,1.5658,1.5686,1.5689,1.5693,0,0,0,0,0,1.5751,1.5761,1.5752,1.575,1.5735,1.5729,1.5727,1.5709,1.5699,1.5703,1.5689,1.5674,1.5664,1.5658,1.5656,1.5663,1.5654,1.5656,1.5657,1.5684,1.5689,1.5693,0,0,0,0,0,0,1.5781,1.5758,1.5748,1.5753,1.5743,1.5724,1.5728,1.5715,1.5708,1.5705,1.5683,1.568,1.5682,1.5673,1.5666,1.5672,1.5657,1.5658,1.5678,1.5682,1.5685,1.5687,1.5641,0,0,0,0,0,1.5788,1.5786,1.5766,1.5772,1.5768,1.5749,1.5746,1.5734,1.5722,1.5718,1.5705,1.5694,1.5688,1.5685,1.5679,1.5685,1.5679,1.5689,1.5692,1.5695,1.5696,1.5698,1.5701,1.5663,1.5663,1.5663,0,0,1.5803,1.579,1.579,1.5778,1.5769,1.5767,1.5746,1.5744,1.5742,1.5717,1.5716,1.5707,1.5693,1.5696,1.5696,1.5688,1.5706,1.5697,1.57,1.5699,1.5699,1.5703,1.5706,1.5664,1.5664,1.5664,0,0,1.5828,1.5819,1.5822,1.5814,1.5801,1.5788,1.5789,1.5772,1.5764,1.5763,1.5744,1.5741,1.5732,1.5723,1.5717,1.5739,1.5724,1.5738,1.5755,1.5757,1.576,1.5763,1.5769,1.5772,1.5739,1.5739,1.5739,0,1.5847,1.5843,1.5826,1.5825,1.582,1.5799,1.5801,1.5794,1.5779,1.5776,1.5767,1.5755,1.5745,1.5745,1.575,1.5747,1.5746,1.5739,1.5761,1.5764,1.5766,1.5772,1.5774,1.5741,1.5741,1.574,1.574,0,1.5868,1.5865,1.587,1.5856,1.5852,1.5853,1.5835,1.5833,1.5821,1.5809,1.5808,1.5795,1.5785,1.5784,1.5772,1.5782,1.5777,1.5765,1.5749,1.5771,1.5776,1.5779,1.5743,1.5743,1.5742,1.5742,0,0,1.591,1.5887,1.5889,1.5882,1.5866,1.5864,1.5864,1.5855,1.5853,1.5844,1.5842,1.5835,1.5824,1.5818,1.5805,1.5806,1.5823,1.5794,1.5793,1.5799,1.5832,1.584,1.5843,1.5814,1.5814,1.5815,1.5832,0,1.5931,1.593,1.5914,1.5918,1.5915,1.5895,1.5895,1.5884,1.5874,1.5869,1.5857,1.5852,1.5838,1.5834,1.5834,1.5821,1.5829,1.582,1.5811,1.5811,1.5814,1.5846,1.5854,1.5872,1.5834,1.5835,1.5835,0,1.5955,1.5948,1.5951,1.5935,1.5933,1.5933,1.5923,1.592,1.5908,1.5899,1.5892,1.5878,1.5876,1.5862,1.5859,1.5853,1.5848,1.5841,1.5841,1.5839,1.5823,1.5843,1.5877,1.5879,1.5838,1.5838,1.5838,0,1.5984,1.5975,1.5975,1.5971,1.5952,1.5952,1.5944,1.5932,1.5927,1.5919,1.5915,1.5907,1.5901,1.5895,1.5878,1.5869,1.5876,1.5861,1.5868,1.5868,1.5869,1.5869,1.5902,1.5869,1.5869,1.5869,1.5869,0,1.6008,1.6011,1.5988,1.5988,1.599,1.5972,1.5974,1.5964,1.5953,1.5951,1.5933,1.593,1.5909,1.5904,1.5891,1.5889,1.5888,1.588,1.5876,1.5881,1.5882,1.5877,1.5874,1.5869,1.5869,1.5869,1.5869,0,1.604,1.6025,1.6024,1.6007,1.6002,1.6005,1.5989,1.5988,1.5977,1.5973,1.5972,1.5953,1.5946,1.5929,1.5918,1.5909,1.591,1.5904,1.5914,1.5912,1.5919,1.5918,1.5949,1.5952,1.5918,1.5919,1.5919,0,1.6056,1.6057,1.604,1.6038,1.6031,1.6026,1.6022,1.6004,1.6,1.5986,1.5987,1.5979,1.5971,1.5961,1.5946,1.5937,1.593,1.5941,1.5928,1.5933,1.5928,1.5928,1.5927,1.5944,1.5944,1.5944,1.5945,0,1.6085,1.6078,1.6072,1.6064,1.6059,1.6052,1.6043,1.6042,1.6022,1.6018,1.6011,1.6005,1.5994,1.5986,1.5975,1.5965,1.5951,1.5949,1.595,1.5954,1.5959,1.5955,1.5921,1.5948,1.5948,1.5948,1.5947,1.5947,1.6109,1.6109,1.6097,1.6091,1.6083,1.6075,1.6073,1.6062,1.6056,1.6046,1.6035,1.6029,1.6017,1.6,1.5992,1.5987,1.5979,1.5981,1.5981,1.5982,1.5983,1.5962,1.5985,1.5985,1.5984,1.5984,1.5984,0,1.6136,1.6127,1.6122,1.6111,1.6106,1.6095,1.6085,1.6081,1.6077,1.6066,1.6059,1.6051,1.6043,1.6028,1.6018,1.6017,1.601,1.6014,1.6014,1.6012,1.5991,1.599,1.602,1.602,1.602,1.602,1.602,1.602,1.615,1.6149,1.614,1.6135,1.6126,1.6121,1.6116,1.6108,1.61,1.6092,1.6085,1.6076,1.6063,1.6052,1.6044,1.604,1.6036,1.6043,1.6036,1.6017,1.6013,1.601,1.6009,1.6043,1.6043,1.6057,1.6057,1.6057]}]]